Flag for Canada

Past Weather in Sarnia, Ontario, Canada — Yesterday and Last 2 Weeks

Currently: 39 °F. Clear. (Weather station: Sarnia Airport, Canada). See more current weather

Past Weather in Sarnia — Graph

°F

Sarnia Temperature Yesterday

Maximum temperature yesterday: 45 °F (at 1:00 am)
Minimum temperature yesterday: 41 °F (at 11:07 pm)
Average temperature yesterday: 43 °F

High & Low Weather Summary for the Past Weeks

 TemperatureHumidityPressure
High64 °F (Nov 20, 1:00 pm)100% (Nov 22, 9:26 am)30.58 "Hg (Nov 22, 9:26 am)
Low25 °F (Nov 14, 7:00 am)34% (Nov 19, 2:00 pm)29.23 "Hg (Nov 15, 1:09 pm)
Average40 °F76%30.07 "Hg
* Reported Nov 13 5:00 pm — Nov 28 5:00 pm, Sarnia. Weather by CustomWeather, © 2020

Note: Actual official high and low records may vary slightly from our data, if they occured in-between our weather recording intervals... More about our weather records

Sarnia Weather History for the Previous 24 Hours

Scroll right to see more
 ConditionsComfort  
Time TempWeatherWind HumidityBarometerVisibility
5:00 pm
Sat, Nov 28
41 °FClear.12 mph61%30.05 "Hg9 mi
4:00 pm43 °FSunny.10 mph53%30.06 "Hg9 mi
3:00 pm43 °FSunny.12 mph53%30.06 "Hg9 mi
2:00 pm45 °FSunny.13 mph42%30.09 "Hg9 mi
1:00 pm43 °FSunny.8 mph46%30.10 "Hg9 mi
12:00 pm41 °FSunny.9 mph49%30.12 "Hg9 mi
11:00 am39 °FSunny.10 mph56%30.14 "Hg9 mi
10:00 am36 °FSunny.8 mph70%30.13 "Hg9 mi
9:00 am34 °FSunny.9 mph75%30.11 "Hg9 mi
8:00 am30 °FSunny.7 mph80%30.11 "Hg9 mi
7:00 am30 °FClear.8 mph86%30.10 "Hg9 mi
6:00 am32 °FClear.8 mph80%30.08 "Hg9 mi
5:00 am32 °FClear.8 mph80%30.06 "Hg9 mi
4:00 am34 °FClear.8 mph70%30.05 "Hg9 mi
3:00 am34 °FClear.9 mph70%30.06 "Hg9 mi
2:00 am36 °FPassing clouds.12 mph60%30.03 "Hg9 mi
1:00 am39 °FPartly cloudy.10 mph70%30.02 "Hg9 mi
12:00 am39 °FPassing clouds.12 mph70%30.02 "Hg9 mi
11:07 pm
Fri, Nov 27
41 °FOvercast.16 mph76%30.01 "Hg9 mi
11:00 pm43 °FMostly cloudy.16 mph76%30.01 "Hg9 mi
10:23 pm43 °FMostly cloudy.8 mph81%30.01 "Hg9 mi
10:00 pm43 °FOvercast.6 mph81%30.01 "Hg9 mi
9:19 pm43 °FOvercast.9 mph81%30.01 "Hg9 mi
9:00 pm43 °FMostly cloudy.8 mph81%30.01 "Hg9 mi
8:00 pm43 °FOvercast.5 mph81%30.01 "Hg9 mi
7:00 pm43 °FMostly cloudy.8 mph81%30.01 "Hg9 mi
6:18 pm43 °FMostly cloudy.7 mph81%30.02 "Hg9 mi
6:00 pm43 °FMostly cloudy.5 mph81%30.02 "Hg9 mi
Weather by CustomWeather, © 2020

See weather overview